Loisir ou Compétition : Rejoignez un Club de la Fédération

Résultats

44 ième Grand Prix d'AGY 2019

FLAINE

FS Hommes

Jury de Compétition

Délégué Technique :
FORT THOMAS (MB)
D.T. Adjoint :
 
Dir. Epreuve :
PETIT ELODIE (MB)

Caractéristiques de la Piste

Piste :
Col de Pierre Carée
Distance :
5 KM km
Point Haut :
 
Point Bas :
 
Montée Tot. :
 
Montée Max. :
 
Homologation :
 

Pénalité Appliquée :
 
Coefficient :
 

Catégorie :
U15
Style :
C
Clt Dos Clt/Cat Code An Nom Prénom Com Club Temps Ecart Points
Classés
1 227 1/U15 FFS2691994 2004 BELLE CLOT SAMUEL MB SCNP ROCHOIS 13:56.7 00:00.0
2 224 2/U15 FFS2686938 2005 VALLEIX JORIS MB SCNP ROCHOIS 14:07.5 00:10.8
3 229 3/U15 FFS2682762 2004 CALANDRY RAPHAEL MB DRAGONS ANNY 14:19.2 00:22.5
4 225 4/U15 FFS2670262 2004 MICHEL JULIEN MB CS LA CLUSAZ 14:21.9 00:25.2
5 206 5/U15 FFS2661783 2004 JOUANNAUD LIONEL MB CS CHAMONIX 14:23.2 00:26.5
6 217 6/U15 FFS2686939 2005 GRENARD MAX MB SCNP ROCHOIS 14:27.3 00:30.6
7 230 7/U15 FFS2681664 2004 PERROUD DORIAN MB SCNP ROCHOIS 14:27.5 00:30.8
8 226 8/U15 FFS2664692 2004 GROS MICHELE MB SC CONTAMINE 14:34.6 00:37.9
9 228 9/U15 FFS2650224 2004 LAUSENAZ ANTHONY MB CHABLAIS NOR 14:39.6 00:42.9
10 220 10/U15 FFS2681320 2004 LEBARD JAN MB DRAGONS ANNY 14:42.1 00:45.4
11 209 11/U15 FFS2681663 2004 LEVET GASTON MB SCNP ROCHOIS 14:46.8 00:50.1
12 221 12/U15 FFS2686681 2005 DELOCHE LINO MB SC GD BORNAN 14:53.9 00:57.2
13 223 13/U15 FFS2670259 2004 BLANCHARD TITOUAN MB CS LA CLUSAZ 14:58.2 01:01.5
14 207 14/U15 FFS2686282 2004 DIERSTEIN ARTHUR MB CNG 15:06.6 01:09.9
15 222 15/U15 FFS2671565 2005 COLOMBAN ALEXIS MB SCNP ROCHOIS 15:08.8 01:12.1
16 214 16/U15 FFS2662962 2004 PANISSET SIMON MB SC GD BORNAN 15:13.9 01:17.2
17 201 17/U15 FFS2686242 2005 VIGUIER QUENTIN MB CS LA CLUSAZ 15:14.5 01:17.8
18 215 18/U15 FFS2686663 2005 PERRILLAT BOITEUX ANTHONY MB SC GD BORNAN 15:16.0 01:19.3
19 210 19/U15 FFS2678952 2004 FAVRE BONVIN TITOUAN MB SC GD BORNAN 15:22.2 01:25.5
20 199 20/U15 FFS2681588 2004 GENTET RONAN MB CS ARGENTIER 15:23.2 01:26.5
21 211 21/U15 FFS2648791 2004 FORTINA ADAM MB SC CONTAMINE 15:23.9 01:27.2
22 219 22/U15 FFS2670261 2004 FAVRE REGUILLON MATHELYO MB CS LA CLUSAZ 15:35.5 01:38.8
23 208 23/U15 FFS2686695 2005 PERRILLAT BOTTONET JUDICA MB SC GD BORNAN 15:41.3 01:44.6
24 195 24/U15 FFS2686793 2005 MARIE ADELIN MB SC D'AGY 15:47.9 01:51.2
25 213 25/U15 FFS2680962 2004 PERRILLAT COLLOMB MATHEO MB SC GD BORNAN 15:49.1 01:52.4
26 174 26/U15 FFS2684607 2004 ADAM NINO MB CS CHAMONIX 15:49.5 01:52.8
27 205 27/U15 FFS2682010 2004 BONAVENT THOMAS MB SC D'AGY 15:49.7 01:53.0
28 202 28/U15 FFS2682178 2004 BIOLLAZ THOMAS MB PRAZ LYS-SOM 15:51.1 01:54.4
29 167 29/U15 FFS2673756 2005 PEYRON ARTHUR MB CS CHAMONIX 15:53.5 01:56.8
30 192 30/U15 FFS2666324 2005 FAVRE FELIX KILLIAN MB SC GD BORNAN 15:57.9 02:01.2
31 204 31/U15 FFS2682024 2004 MILLAN SYLVAIN MB VILLARD/BOEG 15:58.0 02:01.3
32 216 32/U15 FFS2667744 2005 BIZZOCCHI ESTEBAN MB SC D'AGY 16:07.9 02:11.2
33 184 33/U15 FFS2686539 2005 LACROIX MATTHIAS MB DRAGONS ANNY 16:10.2 02:13.5
34 187 34/U15 FFS2682008 2004 PRIVE CONSTANT MB SC D'AGY 16:10.3 02:13.6
35 218 35/U15 FFS2696374 2004 FUCHS ARTHUR MB CS LA CLUSAZ 16:12.7 02:16.0
36 179 36/U15 FFS2692552 2005 PETROD BASTIEN MB CNG 16:14.8 02:18.1
37 176 37/U15 FFS2686940 2005 LEVET PROSPER MB SCNP ROCHOIS 16:18.9 02:22.2
38 197 38/U15 FFS2681260 2004 BOEHLER DORIAN MB LES GETS S.C 16:28.3 02:31.6
39 193 39/U15 FFS2681277 2004 PETILLEON TAO MB PRAZ LYS-SOM 16:28.7 02:32.0
40 189 40/U15 FFS2668129 2004 BAUD CESAR MB LES GETS S.C 16:30.8 02:34.1
41 194 41/U15 FFS2686538 2005 JOMIER LOIS MB DRAGONS ANNY 16:32.2 02:35.5
42 175 42/U15 FFS2692551 2004 PEIGNE VICTOR MB CNG 16:37.2 02:40.5
42 181 42/U15 FFS2686543 2005 ROMERI NATHAN MB DRAGONS ANNY 16:37.2 02:40.5
44 198 44/U15 FFS2686795 2005 DELERCE THIBAULT MB SC D'AGY 16:41.0 02:44.3
45 191 45/U15 FFS2676910 2005 CLAVEL SIMON MB CS LA CLUSAZ 16:42.4 02:45.7
46 172 46/U15 FFS2681171 2005 LUZET HUGO MB CS LA CLUSAZ 16:43.9 02:47.2
47 185 47/U15 FFS2686542 2005 PEYRET TILIEN MB DRAGONS ANNY 16:45.6 02:48.9
48 188 48/U15 FFS2681002 2004 GONIN LEANDRE MB SC GD BORNAN 16:54.9 02:58.2
49 169 49/U15 FFS2682725 2004 COINTEPAS COLIN MB CNG 16:57.8 03:01.1
50 186 50/U15 FFS2681321 2004 BETRIX ALEXIS MB CHABLAIS NOR 16:58.4 03:01.7
51 180 51/U15 FFS2687102 2005 SYLVESTRE BARON PAUL MB SCNP ROCHOIS 16:59.5 03:02.8
52 212 52/U15 FFS2687034 2005 FIVEL DEMORET HUGO MB SC CONTAMINE 17:03.6 03:06.9
53 182 53/U15 FFS2681169 2004 JOSSERAND ANTOINE MB CS LA CLUSAZ 17:13.4 03:16.7
54 190 54/U15 FFS2663071 2004 BEGUEX LOUIS MB VILLARD/BOEG 17:23.7 03:27.0
55 164 55/U15 FFS2690481 2005 THABUIS BASILE MB VILLARD/BOEG 17:24.8 03:28.1
56 141 56/U15 FFS2687103 2005 MOREAU SIMEON MB SCNP ROCHOIS 17:34.1 03:37.4
57 156 57/U15 FFS2680344 2005 DELERCE GASPARD MB LES GETS S.C 17:35.2 03:38.5
58 200 58/U15 FFS2668666 2004 DOUKARI ALEXIS MB SALLANCHES 17:37.4 03:40.7
59 171 59/U15 FFS2666956 2004 BLAIZE REMI MB VILLARD/BOEG 17:38.7 03:42.0
60 160 60/U15 FFS2687035 2005 CORNU MATHIEU MB CS CHAMONIX 17:42.6 03:45.9
60 162 60/U15 FFS2686260 2005 BOSSUT AUGUSTIN MB PRAZ LYS-SOM 17:42.6 03:45.9
62 196 62/U15 FFS2691698 2004 GEORGES THIBAULT MB SALLANCHES 17:47.7 03:51.0
63 178 63/U15 FFS2669366 2004 ROBERT ELOUAN MB SALLANCHES 17:51.2 03:54.5
64 168 64/U15 FFS2686853 2004 PIERS NOE MB CNG 17:52.2 03:55.5
65 183 65/U15 FFS2660349 2004 DELOCHE TRISTAN MB SC GD BORNAN 17:57.7 04:01.0
66 203 66/U15 FFS2666342 2005 OUVRIER BUFFET JULES MB CS LA CLUSAZ 17:57.9 04:01.2
67 161 67/U15 FFS2686259 2005 DUCREY BRICE MB PRAZ LYS-SOM 17:59.2 04:02.5
68 170 68/U15 FFS2688043 2005 MAGNIEZ OSCAR MB DRAGONS ANNY 18:01.3 04:04.6
69 165 69/U15 FFS2692554 2005 ZAVARISE NOAH MB CNG 18:01.6 04:04.9
70 166 70/U15 FFS2681304 2005 PERSONNAZ LOAN MB DRAGONS ANNY 18:28.7 04:32.0
71 145 71/U15 FFS2654656 2004 KUNTZINGER TOM SA CN REVARD 18:41.9 04:45.2
72 159 72/U15 FFS2682327 2004 GURLIAT MATHIS MB SCNP ROCHOIS 18:46.5 04:49.8
73 147 73/U15 FFS2688678 2005 REPELLIN CHARLES MB VILLARD/BOEG 18:47.4 04:50.7
74 157 74/U15 FFS2663405 2004 JOCHUM ADRIEN MB LES GETS S.C 19:24.6 05:27.9
75 153 75/U15 FFS2678687 2005 MILLET DIWAN MB SCNP ROCHOIS 19:34.2 05:37.5
76 152 76/U15 FFS2681813 2004 ANGRAND LOUIS MB VILLARD/BOEG 19:53.2 05:56.5
77 163 77/U15 FFS2682027 2004 GALLAY ETHAN MB VILLARD/BOEG 20:22.1 06:25.4
78 173 78/U15 FFS2696236 2005 MONGELLAZ JULES MB SC CONTAMINE 21:18.8 07:22.1
79 151 79/U15 FFS2687856 2005 VEISY KILLIAN MB EN HT GIFFRE 23:12.3 09:15.6
80 142 80/U15 FFS2686293 2005 GRANGE JUSTIN MB DRAGONS ANNY 23:36.2 09:39.5
81 148 81/U15 FFS2676738 2005 CHETAIL JULES MB CS MEGEVE 1h34:01.0 1h20:04.3
Non partants
143 FFS2686801 2005 GARBY KEVIN MB SC D'AGY
144 FFS2686535 2005 FAILLENET JORIS MB DRAGONS ANNY
146 FFS2663262 2004 LANVERS MATTEO MB VILLARD/BOEG
149 FFS2686262 2005 LESSERTISSEUX VALENTIN MB PRAZ LYS-SOM
150 FFS2671231 2005 DELSOL ANTONIN SA CS LA FECLAZ
154 FFS2686905 2005 MIR EMARATI MILO MB CS CHAMONIX
155 FFS2692697 2004 NEGRO NICOLAS MB SC D'AGY
158 FFS2697012 2004 VIRON ADRIEN MB SCNP ROCHOIS
177 FFS2683536 2004 JACQUEMARD SWAN MB CS ARGENTIER